User: anonymous   Login
Location: Tamazert
(32.6352°N, 5.2072°W)
Time: 08:29:02
(UTC+00:00)
Language:

Cosmos 1408 - Orbit

View from above orbital plane
View from above orbital plane
View from above satellite
View from above satellite

Ground track
Ground track

The orbit data is extracted from the following two-line orbital elements,

1 13552U 82092A   22228.89707219  .00005523  00000-0  16613-3 0  9991
2 13552  82.5720 207.9750 0023863 248.5997 111.2700 15.33852355 42006
Epoch (UTC): 16 August 2022 21:31:47
Eccentricity: 0.0023863
inclination: 82.5720°
perigee height: 448 km
apogee height: 480 km
right ascension of ascending node: 207.9750°
argument of perigee: 248.5997°
revolutions per day: 15.33852355
mean anomaly at epoch: 111.2700°
orbit number at epoch: 4200

The dashed part of the orbit path shows where the satellite is in the earth's shadow,  

DLR